Theta_e
326 326 327 328 327 327 327 328 326 324 323 322 318 315 315 315 315 313 310 307 306 307 309 310 309 306 306 307 307 305 306 310 313 312 312 313 314 314 313 312 312 314 316 317 318 319 320 320 320 318 318 318 317 317 317 317 317 317 317 317 317 318 317 316 315 311 308 308 307 306 306 307 308 308 308 308 309 309 309 309 309 309 309 309 309
326 326 327 327 327 327 328 327 325 323 324 322 317 315 315 316 316 315 312 309 307 305 306 307 306 305 305 306 306 305 305 307 309 310 310 311 311 311 310 310 309 311 315 316 317 317 318 319 319 318 318 317 317 316 316 316 316 315 315 316 316 318 318 318 317 314 310 309 307 306 306 307 308 309 309 309 309 309 309 308 308 308 308 309 309
326 326 326 326 327 328 327 325 324 324 324 320 316 315 316 317 318 317 315 311 307 305 305 305 305 305 305 305 305 305 304 305 306 308 309 309 309 308 307 307 307 309 313 316 316 316 316 317 318 318 317 317 316 316 316 315 314 313 313 314 314 315 316 317 318 317 314 310 308 307 307 308 309 309 309 309 309 308 308 308 308 308 308 309 309
326 325 325 326 327 328 327 324 324 325 324 318 315 316 317 318 319 319 318 313 307 305 305 305 305 305 304 305 305 305 305 304 305 307 308 308 308 307 307 307 307 308 311 314 315 315 315 316 316 317 316 316 316 315 314 313 313 313 313 313 313 314 314 315 317 318 317 314 310 308 307 308 309 309 309 309 308 308 308 308 308 308 309 309 309
327 325 324 326 328 329 327 324 325 326 322 317 315 316 318 320 320 320 320 317 310 305 305 305 305 304 304 304 305 305 304 304 305 306 307 308 308 308 309 309 309 309 309 310 312 313 313 314 315 315 315 315 314 313 313 313 313 313 313 313 313 313 313 314 314 317 319 317 313 309 308 308 309 309 309 309 308 308 308 308 308 308 309 309 309
326 325 325 326 328 328 327 325 325 325 321 317 316 317 319 321 321 321 320 319 314 308 305 305 305 304 304 304 304 305 304 304 306 307 308 309 309 309 309 309 310 309 309 309 309 309 310 311 312 312 313 313 313 313 312 312 312 313 314 314 313 313 313 313 314 316 318 318 316 312 309 308 309 309 309 309 309 308 308 308 308 308 309 309 309
327 326 326 327 328 327 327 325 326 325 320 317 318 318 319 322 322 321 320 320 316 310 306 305 304 304 304 304 304 304 304 305 306 308 309 309 309 310 309 309 310 310 310 310 310 310 310 310 311 311 312 313 313 313 313 313 313 313 314 314 314 314 313 314 313 314 316 318 318 315 311 309 308 309 309 309 309 309 308 308 308 309 309 309 309
328 327 326 326 326 326 327 326 325 324 319 317 319 318 318 322 322 321 320 319 316 312 308 305 304 304 304 304 305 305 305 306 307 309 309 309 310 310 309 310 310 310 311 312 312 313 314 313 313 313 314 314 314 314 315 315 315 314 314 314 314 314 314 314 314 313 314 315 316 315 312 310 309 308 308 309 309 309 309 309 309 309 309 309 309
327 327 325 324 325 325 326 325 323 322 318 318 320 317 316 321 322 320 319 318 316 313 309 306 305 305 305 305 305 305 306 307 309 309 310 310 310 310 310 310 310 310 311 312 313 314 315 315 315 316 316 316 316 316 316 315 315 315 315 315 315 315 315 315 315 314 314 313 313 313 311 310 309 309 308 308 308 309 309 309 309 309 309 309 309
325 325 324 324 325 325 324 323 321 321 320 320 320 316 317 321 322 320 320 319 316 313 310 308 306 305 305 305 305 306 307 309 310 310 310 310 310 310 310 310 309 311 313 314 314 314 314 316 317 317 317 317 317 317 317 317 316 316 316 315 315 315 315 315 315 315 315 314 314 313 312 311 311 311 310 309 308 308 309 309 309 309 309 309 310
324 324 324 324 324 323 323 322 321 321 321 321 319 316 316 319 320 319 318 317 314 313 313 312 310 308 307 307 307 307 309 310 310 310 310 310 311 311 312 312 312 314 316 317 316 316 316 317 317 317 318 318 318 318 318 318 317 317 317 317 316 315 315 315 315 315 315 315 315 315 314 313 312 312 312 311 309 308 309 309 309 309 309 309 310
324 324 324 324 323 322 322 322 321 321 321 320 319 317 316 317 318 317 315 314 313 313 313 313 312 312 312 311 311 311 312 312 312 312 312 313 314 314 315 316 316 317 317 317 317 317 317 318 318 318 318 318 319 319 319 318 318 318 318 318 318 317 317 316 315 315 315 315 316 315 315 315 314 313 312 312 311 309 309 309 309 310 310 310 310
323 323 324 324 323 323 322 322 321 321 321 320 319 317 316 315 316 315 315 314 314 313 311 310 312 315 315 315 315 315 315 315 315 315 315 315 316 316 316 317 317 317 317 317 317 318 318 318 318 319 319 319 319 319 319 319 319 318 318 318 319 319 318 318 317 316 315 315 316 316 316 315 315 315 314 313 312 311 310 309 310 310 310 310 309
321 322 322 322 322 321 321 321 321 321 320 319 317 315 314 313 314 315 315 314 314 314 313 314 315 317 317 317 317 317 316 316 316 316 316 316 316 316 316 316 316 317 317 317 317 317 318 318 318 318 319 319 319 320 319 319 319 319 319 319 319 320 319 318 317 317 316 316 316 316 316 316 316 316 316 314 313 312 311 310 310 310 310 310 309
320 320 321 321 321 321 320 320 319 319 318 317 316 316 315 314 314 315 315 315 316 316 316 316 318 319 318 318 317 317 318 317 316 316 316 316 316 316 316 316 316 317 317 317 317 317 318 318 318 318 318 319 319 319 319 319 318 318 319 319 319 319 319 318 317 317 317 317 316 316 316 316 316 316 316 316 314 313 312 311 310 310 310 310 309
319 319 319 319 320 320 319 319 318 317 317 316 317 318 318 317 317 317 316 317 318 318 317 318 319 320 320 319 318 318 318 318 317 317 316 316 317 317 317 317 317 317 317 317 317 317 318 318 318 318 318 318 318 318 318 318 318 318 318 318 318 318 318 318 317 317 317 317 317 317 316 316 316 315 315 316 315 313 312 311 310 310 310 310 309
318 318 318 317 318 318 318 318 319 318 317 318 318 319 319 319 318 317 318 318 317 316 318 320 320 320 320 320 320 319 319 319 318 318 318 318 318 318 319 319 318 319 319 319 319 319 319 319 319 319 319 319 318 318 318 318 318 318 318 318 318 318 318 317 317 317 317 317 317 317 316 316 316 315 315 316 316 315 313 311 310 309 309 309 308
314 315 315 315 315 316 316 317 318 318 317 318 318 318 318 318 317 316 317 318 317 315 317 319 319 319 319 319 319 318 318 318 319 319 319 319 318 318 318 318 318 318 318 318 318 318 318 318 317 317 317 317 317 317 317 317 316 316 317 317 317 316 316 316 316 317 317 317 316 316 316 315 315 315 315 315 316 315 312 310 309 309 308 308 307
309 311 312 312 312 313 313 315 316 316 317 317 316 316 316 316 315 315 316 316 316 315 316 316 316 316 316 316 316 316 316 316 316 317 317 317 317 316 316 316 315 315 315 315 314 314 314 314 313 313 313 313 313 313 312 313 312 312 313 314 314 313 313 313 315 316 316 316 316 315 315 315 315 315 315 315 315 313 311 309 309 309 308 308 307
303 305 306 307 308 308 309 310 311 312 313 313 313 313 313 312 313 314 314 314 315 314 314 314 314 314 314 313 313 314 313 313 313 314 314 314 314 314 314 313 313 313 313 313 312 312 312 312 312 312 312 311 311 310 310 310 310 310 310 311 311 311 311 311 313 314 315 315 315 314 314 314 314 314 314 313 312 311 310 309 309 309 309 308 306
300 300 301 302 303 304 304 305 305 307 308 309 309 310 310 309 310 311 312 312 312 311 311 311 311 310 310 310 309 309 309 309 310 311 311 312 312 311 311 311 311 312 312 312 312 312 312 312 312 312 312 312 311 311 310 309 309 309 309 309 309 310 310 311 312 314 314 314 314 313 314 314 313 313 313 312 311 310 310 309 309 308 308 306 304
299 299 300 300 301 302 302 302 303 303 304 305 305 306 307 307 308 308 309 310 310 309 309 309 309 308 308 308 308 308 309 309 309 309 309 310 310 310 310 309 309 309 309 309 309 309 309 310 311 311 311 311 311 311 311 311 310 309 309 309 309 309 309 311 312 313 314 314 314 314 314 313 312 312 312 310 309 309 309 309 308 307 306 305 304
298 298 298 298 299 299 300 300 300 301 301 301 301 302 302 303 303 304 304 305 306 306 307 307 308 308 307 307 307 307 308 308 309 309 309 309 309 309 309 308 308 307 306 305 305 305 305 305 306 308 309 310 311 310 310 311 311 311 310 310 310 310 309 310 312 314 314 314 314 314 314 312 311 311 311 310 309 308 308 307 306 306 305 303 302
297 297 297 298 298 298 298 298 298 298 299 299 299 299 299 299 299 300 300 300 300 301 301 302 303 303 303 302 302 302 302 303 303 304 305 305 306 306 306 305 304 303 302 302 302 302 302 302 302 304 305 307 309 310 311 311 311 311 311 311 311 311 311 311 312 314 314 314 313 314 313 312 311 310 309 309 308 307 306 305 305 304 303 301 300
297 297 297 297 297 297 297 297 297 298 298 298 298 298 298 298 298 298 298 298 298 298 298 299 299 299 299 299 299 299 299 299 299 299 299 300 300 300 300 300 299 299 299 299 299 299 300 300 300 301 302 303 305 307 309 310 311 311 312 312 312 312 312 312 312 313 314 314 313 313 312 311 310 309 308 307 307 306 305 304 303 302 301 300 299
296 296 296 296 296 296 296 296 297 297 297 297 297 297 298 298 298 298 298 298 298 298 298 298 298 298 298 298 298 298 298 298 298 298 298 298 298 298 298 298 298 298 298 298 298 298 298 298 299 300 300 301 302 303 305 307 309 310 311 311 312 312 312 312 312 312 313 314 313 312 311 309 308 307 306 305 305 304 304 303 301 300 300 299 297
296 296 296 296 296 296 296 296 296 296 296 296 296 297 297 297 297 297 297 297 297 297 297 297 297 297 297 296 296 296 296 296 296 296 296 297 297 297 297 297 297 297 298 298 298 297 297 298 298 299 300 301 302 303 304 306 308 309 310 310 309 309 309 309 310 311 312 312 312 311 309 308 307 306 305 304 304 304 303 301 300 299 298 296 295
295 295 296 296 296 295 295 295 295 295 295 296 296 296 296 296 296 296 296 296 296 296 296 296 296 296 296 296 296 296 296 296 296 296 296 296 296 296 296 296 296 297 297 297 297 297 297 297 298 299 300 301 301 302 303 305 306 308 308 308 307 307 306 307 308 308 309 310 311 310 308 307 307 305 304 304 303 302 301 300 299 297 296 294 293
295 295 295 296 296 295 294 294 295 295 296 296 296 295 295 296 296 296 296 296 296 296 296 296 296 296 296 296 296 296 297 297 297 297 297 297 297 297 297 297 297 297 296 296 297 297 297 298 298 299 300 301 301 302 302 303 305 306 306 306 306 306 306 306 306 307 307 308 309 308 306 306 305 304 303 302 301 300 299 299 297 295 294 293 292
294 295 295 295 295 295 294 295 295 295 296 296 296 296 296 296 296 296 296 297 296 296 297 296 297 297 297 297 297 297 297 297 297 297 297 297 297 297 297 297 297 297 297 296 296 296 297 297 298 299 300 300 301 302 303 303 304 305 305 305 306 306 306 306 307 308 308 307 307 306 305 304 303 302 301 301 300 299 299 297 295 293 292 292 292
294 295 295 295 295 295 295 295 295 295 296 296 296 296 296 296 297 297 297 297 297 297 297 297 297 297 297 297 297 297 297 297 297 297 297 297 297 296 296 296 296 296 297 296 296 296 296 297 298 299 299 300 301 302 303 304 304 305 304 304 305 306 307 308 308 307 306 305 304 304 303 303 302 301 301 300 299 298 296 294 293 292 291 291 291
294 294 295 295 295 295 295 295 295 296 296 296 296 297 297 297 297 297 297 297 298 298 297 297 297 297 297 297 297 297 297 297 297 297 297 297 296 296 296 296 296 296 296 296 296 296 296 297 298 298 299 300 301 302 304 304 305 305 304 305 306 307 307 308 307 306 305 304 303 302 301 300 300 300 300 298 297 295 293 292 291 291 291 291 291
294 294 295 295 295 294 294 295 295 296 296 296 296 297 297 297 297 297 297 298 298 298 298 298 298 298 298 298 298 298 298 298 298 298 297 297 297 297 297 296 296 297 297 297 297 298 297 298 298 298 299 299 300 302 303 304 304 304 305 305 306 306 307 306 305 304 303 302 301 300 299 299 299 299 298 296 294 293 292 291 291 290 290 290 290
294 294 294 294 294 294 294 295 295 295 296 296 296 296 296 296 296 297 297 298 298 298 298 298 298 298 298 298 298 298 298 298 298 298 298 298 298 298 298 297 297 297 297 297 298 298 298 298 299 299 299 299 299 300 302 303 303 303 304 305 305 305 305 305 304 302 301 300 299 299 298 298 297 296 295 293 292 291 291 290 290 290 290 290 291
294 294 294 293 293 293 294 294 294 294 295 295 295 296 296 297 297 297 297 298 298 298 298 298 298 297 297 298 298 298 298 298 298 298 298 298 298 298 298 298 298 298 297 297 297 298 298 298 299 299 299 299 299 300 301 302 303 303 303 304 304 304 305 304 303 301 299 299 298 298 297 296 295 293 292 292 291 291 290 290 290 290 290 290 291
294 294 294 293 293 293 293 293 294 294 294 294 295 295 296 296 297 297 297 297 297 298 298 298 297 297 297 297 297 297 298 298 298 298 298 298 298 298 298 299 299 299 298 298 298 298 298 298 298 299 299 299 299 299 300 301 301 302 302 302 303 303 303 302 301 299 298 297 297 296 295 294 293 292 292 291 291 290 290 290 290 290 290 291 291
294 294 294 294 294 293 293 294 294 294 294 294 295 295 296 296 296 296 296 297 297 297 297 297 297 297 297 297 297 297 297 297 297 297 297 298 298 298 298 298 299 299 299 299 299 299 298 298 298 299 299 299 299 299 300 300 300 301 300 301 301 301 300 299 298 297 297 296 295 294 293 293 292 292 291 291 290 290 290 290 290 290 290 291 291
294 294 294 294 294 294 294 294 294 294 294 294 295 295 296 296 296 296 296 296 297 297 297 297 297 296 296 296 296 296 296 296 296 297 297 297 298 298 298 298 298 298 298 299 299 299 299 299 299 299 299 299 299 300 300 299 299 299 299 298 299 298 297 297 296 295 295 295 294 293 293 292 292 292 291 290 290 290 290 290 290 291 291 290 291
294 294 294 294 294 294 294 294 294 294 294 294 295 295 295 295 295 295 296 296 296 296 296 296 296 295 295 295 296 296 296 296 296 297 297 298 298 298 298 298 298 297 297 298 298 298 298 298 298 299 299 299 299 300 300 298 297 297 297 297 297 296 295 294 294 294 295 294 294 293 292 292 292 291 290 290 290 289 290 290 290 290 290 290 290
294 295 295 294 294 294 294 294 294 294 294 294 295 295 295 295 295 295 295 295 295 295 295 295 295 295 295 295 296 296 296 296 296 297 297 298 298 298 298 298 298 298 297 297 298 298 298 297 297 298 298 299 299 299 299 298 297 296 296 296 296 294 294 294 294 294 294 293 292 292 291 291 290 290 290 289 289 289 290 290 290 290 290 290 290
294 295 295 295 294 294 294 294 294 294 294 294 294 295 295 295 295 295 295 295 294 295 295 295 295 295 295 295 295 295 295 295 296 296 297 297 298 297 297 297 297 297 297 297 298 298 298 297 297 298 298 298 298 298 297 297 296 296 296 296 296 295 295 295 294 293 292 292 291 291 291 290 289 289 289 289 289 289 290 290 290 290 290 290 290
294 294 295 295 295 295 294 294 293 293 293 294 294 295 295 295 295 294 294 294 294 295 295 295 295 295 295 295 295 295 295 295 295 295 296 296 297 297 297 296 296 296 297 297 297 297 297 297 297 297 297 296 296 296 296 296 296 296 296 297 296 296 295 294 292 292 292 291 291 291 290 290 289 289 289 289 289 290 290 290 290 290 290 290 290
294 294 294 294 294 294 294 293 293 293 293 294 294 294 294 294 294 294 294 294 295 295 295 295 295 295 295 295 295 295 295 295 295 294 295 295 296 296 296 296 296 296 296 296 297 297 297 297 297 297 296 296 295 295 295 295 295 296 296 296 295 294 293 292 292 292 292 291 291 291 290 289 288 288 288 288 289 290 290 290 290 290 290 290 290
294 294 294 294 293 293 293 293 293 292 293 293 294 294 294 294 294 294 294 294 294 294 294 294 295 295 295 295 295 295 295 295 294 294 294 294 295 295 295 295 295 295 295 295 295 296 296 296 296 296 296 296 296 295 295 295 295 296 296 295 294 293 293 292 292 292 292 291 291 289 288 288 288 288 288 288 289 289 290 290 290 290 290 290 290
294 294 294 294 293 293 293 293 293 292 292 293 293 294 294 294 294 293 294 294 294 294 294 294 294 294 294 294 294 294 294 294 294 293 293 293 294 294 294 295 294 294 294 295 295 295 295 295 295 295 295 295 295 295 295 295 295 295 294 294 293 293 292 292 292 291 291 290 289 288 287 288 288 288 288 289 289 289 289 290 289 289 289 290 290
294 294 294 294 294 293 293 293 293 292 292 293 293 293 294 294 294 293 293 293 293 294 294 294 294 294 294 294 294 294 293 293 293 293 293 293 293 293 294 294 294 294 294 294 294 295 295 295 294 294 294 294 294 294 294 294 294 294 293 293 292 292 292 291 291 290 289 288 288 287 287 287 287 287 288 289 289 289 289 289 289 289 289 289 289
294 294 294 294 294 293 292 292 293 292 292 293 293 293 294 294 293 293 293 293 293 293 294 294 294 294 294 293 293 293 293 293 292 292 292 292 292 293 293 293 293 293 293 293 294 294 294 294 294 293 293 293 292 292 292 292 292 292 292 291 291 291 290 289 289 288 287 287 287 287 288 288 288 288 288 288 289 289 289 289 289 289 289 289 289
295 294 294 294 293 293 293 292 292 293 292 292 293 293 293 293 293 293 294 294 293 293 294 294 294 293 293 293 293 293 292 292 292 292 291 291 291 292 292 293 293 293 293 293 293 293 293 293 293 292 292 292 291 291 291 290 290 290 290 289 289 288 288 287 287 287 287 287 288 289 289 289 289 289 289 289 289 289 289 289 289 289 289 289 289
295 295 294 294 293 293 293 292 292 292 292 292 292 292 293 293 293 293 293 294 294 294 294 294 293 293 293 292 292 292 292 292 292 291 290 290 290 291 291 291 292 292 292 292 292 292 292 292 291 291 291 290 290 289 289 288 287 287 287 287 287 287 287 287 287 288 288 289 289 289 289 289 289 289 289 289 289 289 289 289 288 288 289 289 289
295 295 295 294 293 293 292 292 292 292 292 292 293 292 292 292 293 293 293 294 294 293 294 294 293 293 293 292 292 292 292 292 291 291 290 289 289 290 290 291 291 291 291 291 291 291 290 290 290 290 289 289 288 288 287 287 287 287 287 288 288 288 288 288 289 289 289 289 289 289 288 288 288 288 288 288 288 288 288 288 288 289 289 288 288
295 295 294 295 294 292 292 291 291 292 292 292 292 293 293 293 293 293 293 294 293 293 293 293 293 293 293 293 292 292 292 292 291 291 291 290 289 289 290 291 291 290 290 289 289 289 289 289 289 290 290 290 289 289 289 289 289 289 289 289 289 289 289 290 290 289 289 289 288 288 288 288 288 288 288 288 287 287 287 288 288 288 288 288 288
Wind_Speed
25 22 22 21 19 18 17 16 16 14 13 12 12 12 13 12 11 10 9 8 8 9 8 7 7 8 8 8 7 6 8 11 11 10 10 11 9 8 7 7 7 8 8 9 10 10 9 9 9 10 11 12 12 11 11 9 7 5 1 1 2 2 1 1 2 3 5 8 9 10 11 10 11 11 12 11 10 9 8 7 6 6 5 4 3
24 23 22 21 20 19 18 17 16 15 13 12 12 13 13 13 11 9 8 8 8 9 8 8 8 8 9 9 9 8 8 10 11 11 11 11 10 8 7 6 7 8 8 8 8 9 8 7 7 7 8 8 8 8 6 5 3 1 2 3 4 6 5 4 2 2 3 5 8 10 10 11 11 11 12 12 11 10 9 8 7 7 6 5 5
22 22 22 21 20 19 18 17 17 15 13 12 13 14 14 13 12 9 7 6 7 8 9 9 8 9 10 10 10 9 8 10 11 12 12 11 10 8 7 6 7 9 9 7 7 8 7 6 6 5 5 5 5 4 2 1 0 1 3 4 5 6 7 8 6 4 5 5 6 9 10 11 12 12 12 13 13 12 11 10 9 8 7 6 6
23 23 22 22 21 20 19 18 17 15 13 12 13 15 15 13 12 10 7 5 6 7 7 8 9 9 10 11 11 10 9 10 11 12 12 12 10 9 9 9 10 9 9 8 7 6 5 5 4 3 3 2 2 1 1 0 1 2 2 3 3 4 5 7 8 8 8 7 7 9 11 12 12 13 13 14 14 14 13 12 11 10 9 9 9
22 22 22 22 21 20 19 18 18 16 13 12 14 16 15 13 11 10 7 5 5 6 6 7 9 9 10 11 11 11 11 11 12 13 13 12 12 11 11 11 10 10 9 8 6 5 5 5 4 4 3 3 3 3 2 2 2 3 3 3 3 3 3 4 6 8 10 10 9 10 11 13 14 14 15 16 16 15 15 14 13 13 12 12 12
20 21 21 21 22 20 18 18 18 16 14 14 15 16 15 14 12 10 8 6 4 4 5 6 8 9 11 12 13 12 13 13 14 14 14 13 12 11 10 10 9 9 8 7 6 5 5 5 5 5 5 5 5 5 4 4 4 3 3 3 3 3 3 3 3 5 9 12 12 11 11 14 15 15 16 17 17 17 17 16 16 16 15 15 15
19 20 20 20 20 18 17 18 19 17 15 15 15 15 16 15 13 11 8 6 5 4 4 6 9 10 11 14 15 14 14 15 15 15 15 14 13 11 10 9 8 8 7 6 6 6 5 4 4 4 4 4 4 4 4 5 4 4 4 4 4 4 3 3 3 3 6 11 13 13 13 14 16 17 17 17 18 19 19 19 19 19 18 17 18
18 18 18 17 16 16 17 19 19 18 17 17 16 15 16 16 15 12 10 8 6 5 4 6 9 11 12 15 15 15 16 16 16 15 14 13 13 11 10 9 8 7 7 7 7 6 5 4 4 3 3 3 3 4 4 4 4 5 5 5 5 5 5 5 4 5 6 9 12 14 14 16 17 19 20 19 20 21 21 22 22 21 20 20 19
16 15 16 18 18 18 19 21 21 20 20 19 18 16 16 16 16 13 10 9 8 7 6 6 9 11 12 14 15 15 16 16 15 14 13 12 11 11 10 9 7 7 6 6 7 7 6 5 3 3 3 4 4 4 5 5 5 5 6 6 6 6 6 6 6 7 8 9 12 14 16 17 19 20 22 22 23 23 22 22 23 22 21 21 21
16 16 17 18 20 21 21 22 22 22 21 21 21 19 17 16 16 14 11 10 9 8 8 7 8 10 11 12 13 14 14 15 14 13 12 11 10 9 9 8 7 6 4 4 5 6 6 5 3 2 2 3 4 4 5 6 6 7 7 7 7 7 8 8 8 9 10 11 13 14 16 18 19 20 21 23 24 25 24 23 24 24 23 23 23
17 17 18 18 19 20 21 22 22 21 22 22 20 18 17 14 13 13 12 10 10 9 9 8 8 9 10 11 12 12 12 13 13 12 12 11 10 9 9 8 7 6 5 5 5 6 6 6 5 4 4 4 5 6 6 7 8 8 9 9 9 9 9 9 10 10 11 12 14 15 16 18 19 20 21 22 24 25 25 25 26 25 25 25 24
16 16 17 17 17 17 19 21 21 21 21 20 18 16 17 18 17 16 15 13 11 10 10 10 9 9 9 10 11 12 12 13 13 13 12 12 11 10 10 9 9 8 8 8 7 7 8 8 8 7 7 7 8 8 9 9 10 10 10 11 11 11 11 11 12 13 13 14 15 16 17 18 20 20 21 22 23 25 26 27 27 27 27 26 26
10 11 13 14 14 15 17 18 18 18 18 18 16 13 13 16 18 16 15 14 13 12 10 9 10 9 10 10 11 12 14 14 14 14 14 13 13 13 13 12 12 12 12 11 11 11 11 11 11 11 11 11 11 11 12 12 13 13 13 13 14 14 14 14 14 15 15 16 17 18 19 19 21 22 22 21 22 24 27 29 29 29 28 27 27
6 6 7 8 8 9 12 14 15 17 16 15 13 10 11 15 17 16 15 15 16 16 13 11 11 11 11 12 12 13 14 15 15 15 15 15 15 15 15 14 14 15 15 15 15 15 15 15 15 15 15 15 15 15 14 15 15 16 16 16 17 17 16 16 17 17 18 18 19 20 20 21 22 24 25 25 24 24 26 29 30 30 29 28 28
9 9 8 7 6 7 9 11 12 14 15 14 12 11 12 15 15 16 16 16 17 16 14 13 12 12 12 12 13 13 15 16 16 16 15 15 15 15 16 16 16 17 17 17 17 17 18 17 17 17 17 17 17 17 17 17 18 19 19 19 20 19 19 19 20 20 21 21 21 21 22 22 23 25 27 28 28 27 27 27 29 29 28 28 28
12 11 11 11 9 9 11 12 11 11 11 11 11 10 11 12 13 15 15 15 13 13 13 12 12 12 12 12 12 13 14 15 16 17 16 16 16 17 17 17 18 18 18 18 18 18 18 18 18 19 19 19 19 19 20 20 21 21 21 22 22 22 22 22 22 23 23 22 22 23 23 23 24 25 27 27 28 29 28 26 26 26 25 25 25
16 14 13 13 12 11 11 12 11 9 8 7 8 8 8 10 11 12 13 14 14 13 12 12 13 13 13 13 14 14 15 15 16 17 17 18 18 18 19 19 19 19 19 19 20 20 20 20 21 21 21 21 21 21 22 23 23 22 22 23 23 24 24 24 24 24 23 23 23 22 22 23 24 25 26 26 28 30 29 27 26 25 23 22 20
20 18 16 16 14 12 11 10 9 7 6 7 7 7 8 8 8 8 10 13 13 13 13 12 12 13 13 13 13 12 12 13 14 16 17 18 18 18 18 19 19 19 19 20 20 20 20 21 21 22 22 22 22 23 23 23 22 22 22 23 24 24 25 24 24 23 23 22 22 21 21 22 23 24 26 27 28 30 28 26 25 23 20 17 14
20 19 18 16 15 14 12 10 9 8 7 7 7 7 7 7 7 7 8 8 9 10 10 10 10 10 10 11 12 12 12 13 14 14 15 16 16 16 17 17 17 17 17 18 18 18 18 18 19 20 20 21 21 21 21 21 21 21 21 22 24 24 23 22 22 21 21 20 20 20 20 21 22 23 24 25 27 27 25 23 21 19 17 15 14
18 17 16 14 13 12 12 10 9 8 8 8 7 6 5 5 5 5 6 6 6 6 7 7 8 9 9 9 10 12 14 14 14 14 14 14 14 15 15 15 16 17 17 18 18 17 17 18 18 19 19 19 20 20 20 21 21 22 22 23 24 24 23 23 22 21 21 20 19 19 19 21 22 22 21 22 23 22 20 19 18 17 16 15 15
15 14 12 11 10 9 8 8 7 7 7 6 5 4 3 3 4 4 5 5 5 6 6 7 8 9 9 9 9 10 12 13 14 14 14 15 15 16 17 18 19 19 20 20 20 20 20 20 21 22 22 21 21 22 22 22 22 23 23 23 23 23 22 23 22 21 21 20 18 18 20 21 21 20 20 21 21 20 19 17 17 16 15 14 13
13 11 10 8 7 6 5 4 4 3 2 2 2 3 3 5 5 6 7 8 8 9 10 11 11 12 13 14 15 16 17 18 18 19 19 19 20 21 22 23 24 25 25 25 25 25 25 25 25 26 26 25 25 25 25 25 25 25 25 24 24 24 23 22 22 22 22 20 18 19 21 22 22 21 22 22 20 18 18 17 15 14 13 12 12
11 9 8 7 6 5 4 3 2 1 0 1 2 3 4 6 7 8 9 10 12 13 14 15 16 17 18 19 20 21 22 24 25 25 26 26 27 27 28 29 30 30 30 29 29 29 29 28 28 29 29 29 30 29 29 29 28 28 27 27 26 26 24 23 23 23 23 21 19 20 23 23 23 23 24 22 19 18 17 15 13 13 12 13 13
9 7 6 6 5 4 3 3 2 1 2 2 3 4 5 6 7 8 9 10 11 13 14 15 17 18 19 19 20 21 22 23 25 26 27 29 30 30 30 31 31 31 30 30 30 30 30 30 30 29 29 30 30 31 31 30 30 29 29 28 27 26 25 25 24 23 22 22 22 23 24 24 23 24 23 20 17 17 16 14 13 13 13 13 13
7 7 6 6 5 5 4 4 3 3 3 3 4 5 6 7 7 8 9 9 10 11 12 13 15 16 17 18 19 19 20 20 22 23 24 25 26 27 27 28 28 29 29 29 29 29 29 29 28 28 28 28 29 29 29 29 29 30 29 29 28 26 26 25 25 24 24 24 24 24 24 24 24 23 20 17 16 16 16 15 14 14 13 13 13
9 9 8 8 7 7 6 5 5 5 4 4 4 4 5 6 6 7 7 8 8 9 9 10 11 12 13 14 14 15 16 17 18 20 20 21 21 22 23 24 25 26 27 28 29 29 29 28 27 26 26 26 25 26 26 26 27 27 27 27 26 26 26 26 25 25 25 25 24 24 24 24 23 21 19 18 17 17 16 14 14 13 13 13 12
13 12 12 11 10 9 8 7 7 6 6 6 5 5 4 4 5 5 5 5 6 6 7 7 8 9 9 10 10 10 10 12 14 15 16 17 18 19 20 21 22 24 25 26 28 28 28 28 27 25 24 23 23 22 23 23 23 24 24 23 23 22 23 23 24 24 23 22 23 24 25 24 22 21 21 20 18 17 15 13 13 12 12 12 11
13 13 13 12 11 10 9 9 8 8 8 7 7 7 7 7 7 7 7 7 8 8 8 9 9 9 10 10 10 9 9 9 11 12 14 15 16 17 18 19 20 21 22 24 25 26 26 26 25 24 22 21 20 20 19 19 20 21 21 20 19 18 19 20 21 21 19 20 22 26 27 25 23 23 23 21 18 16 13 11 12 12 12 10 9
13 12 12 11 11 10 9 9 9 9 10 10 9 9 9 8 8 9 9 9 9 9 10 10 11 11 10 10 10 9 8 8 9 10 11 13 15 16 17 18 19 19 20 22 23 24 24 24 23 21 20 19 18 18 17 16 17 18 18 18 18 18 19 20 21 21 21 22 26 29 28 26 25 24 21 18 15 12 10 11 11 11 10 8 8
14 13 12 11 10 9 8 8 8 9 11 11 11 11 11 11 11 11 11 11 11 11 11 11 11 12 11 10 10 9 8 8 8 9 10 11 13 14 15 16 17 18 19 20 22 23 23 23 22 20 19 18 16 16 15 16 16 17 17 17 17 19 20 20 20 20 21 24 28 27 26 25 24 21 18 14 11 10 10 11 10 9 8 8 8
15 15 13 12 10 9 8 7 8 8 9 10 11 11 11 11 12 12 13 13 13 13 12 12 11 12 11 10 9 9 8 8 8 9 11 12 12 12 12 12 12 14 16 17 19 20 20 21 21 19 18 17 15 15 16 17 17 16 15 15 16 16 17 16 16 18 22 26 26 24 25 25 22 18 14 12 11 11 10 9 9 8 8 7 7
15 16 15 12 10 8 7 7 7 7 8 8 9 9 9 10 11 12 13 14 14 13 12 11 11 11 12 11 10 9 9 9 9 9 10 11 12 11 10 9 9 10 12 13 15 15 16 17 18 17 17 16 16 16 17 18 17 15 14 14 15 15 14 13 14 17 22 24 24 23 23 20 16 12 11 10 11 10 9 9 9 8 7 7 7
16 16 15 11 9 7 6 6 7 7 7 8 8 8 9 10 11 11 11 11 12 12 12 12 11 11 12 12 11 10 9 8 8 8 9 10 10 10 9 8 8 9 10 11 12 12 13 14 15 15 15 16 17 17 18 17 15 13 12 14 15 15 13 12 14 17 18 18 19 20 18 15 12 11 10 10 10 9 8 8 7 6 6 7 8
15 15 13 9 7 6 6 6 7 7 7 8 8 9 10 10 10 10 9 9 10 11 12 12 13 14 14 14 13 12 11 10 9 9 11 12 13 12 11 9 7 8 9 9 11 11 12 12 13 13 15 16 16 17 18 17 13 12 14 16 16 14 13 14 16 17 16 16 17 17 15 13 11 10 10 10 9 8 7 6 6 6 7 7 6
13 13 11 9 7 6 6 6 7 7 7 8 9 10 10 11 11 10 9 9 10 11 11 12 13 14 15 15 14 14 13 13 13 13 14 16 16 16 15 13 10 8 9 9 10 11 12 12 13 13 13 14 14 14 16 16 14 13 15 17 17 16 16 18 18 17 17 17 17 15 13 12 10 9 9 8 8 6 5 6 6 6 6 6 5
11 11 9 8 8 7 7 8 9 9 8 8 10 10 10 10 10 10 10 11 11 11 10 10 11 11 12 12 12 12 13 14 14 15 16 17 17 17 17 15 11 9 9 11 11 12 12 13 14 14 13 13 13 13 14 15 15 15 17 19 19 19 20 22 20 19 19 18 16 14 13 11 10 9 9 7 6 5 5 6 6 6 6 5 3
9 8 7 6 7 7 7 8 10 10 9 8 8 8 8 8 9 10 10 10 10 10 9 8 8 9 9 10 10 11 11 11 12 13 14 15 16 17 17 16 13 10 9 10 11 12 12 13 14 14 14 14 15 14 14 16 16 16 18 20 20 20 20 20 20 20 19 17 15 13 11 10 9 9 7 6 5 5 6 6 5 5 4 3 1
8 7 5 4 4 6 6 7 8 9 8 7 7 7 7 8 9 10 10 10 9 9 9 9 9 10 11 11 12 12 11 10 10 11 13 14 15 16 17 17 16 14 12 12 11 12 12 12 13 13 12 12 13 13 13 14 13 14 16 17 18 19 19 19 20 20 17 15 14 12 10 9 9 8 7 6 6 6 6 5 3 2 2 1 0
8 7 5 3 2 3 4 5 6 7 7 6 7 7 7 7 9 9 10 9 9 9 10 10 11 11 12 13 14 14 13 12 12 13 14 15 16 16 16 16 16 16 15 14 14 13 13 12 11 10 9 9 9 10 11 9 5 8 12 14 16 19 20 20 20 17 15 13 12 10 9 8 7 7 6 6 6 5 5 4 3 3 3 1 1
7 7 6 4 2 2 4 4 4 5 6 6 7 7 7 8 9 10 10 10 11 11 12 12 13 14 15 16 17 17 17 17 18 18 17 17 17 18 17 16 15 14 15 15 14 14 14 12 10 8 8 8 8 8 7 2 4 9 12 15 20 22 21 18 15 13 13 12 11 10 8 7 6 6 5 5 4 3 3 3 3 3 3 2 1
7 7 7 5 4 4 5 5 5 6 6 7 8 7 7 9 10 11 11 12 12 13 13 13 14 15 16 17 17 17 19 21 22 22 21 20 18 17 17 16 14 13 13 13 13 13 12 10 8 7 8 8 7 5 1 6 11 14 14 16 18 19 17 15 14 13 13 11 10 8 7 5 5 4 4 3 3 3 3 2 2 2 2 1 1
6 8 7 6 5 5 6 7 7 8 6 8 9 8 8 9 10 10 10 11 11 12 12 13 14 15 16 16 16 16 18 20 22 22 23 22 20 19 19 18 17 16 15 13 12 12 11 9 7 5 5 5 2 2 6 11 14 14 13 14 14 15 16 15 14 12 11 9 7 6 5 4 4 3 3 3 3 3 2 2 2 2 2 1 2
5 7 7 7 7 7 7 8 10 8 6 10 10 9 8 9 9 9 9 9 9 10 11 12 13 14 15 15 15 16 17 19 20 20 21 21 21 21 22 21 21 21 20 18 15 13 11 10 9 8 8 8 8 9 10 12 13 12 12 14 15 16 15 14 12 11 10 7 5 5 4 3 3 3 3 3 3 2 2 2 2 2 2 2 2
3 5 6 7 8 8 8 10 11 7 7 11 11 9 8 8 8 8 8 8 9 10 11 11 12 13 14 14 15 16 17 18 19 20 20 20 20 21 22 22 22 23 23 22 21 20 18 16 15 13 12 12 13 13 12 12 12 12 14 15 16 15 14 12 12 11 8 6 5 5 4 3 2 3 3 3 3 3 2 2 3 3 2 2 2
2 4 5 6 7 7 8 10 11 8 9 12 10 8 8 8 9 8 8 8 9 10 11 11 11 11 12 13 14 15 16 17 19 20 20 20 20 20 21 20 20 20 21 21 21 21 21 21 21 20 19 18 17 16 16 16 15 15 15 15 14 13 12 11 9 7 5 5 6 6 4 2 2 3 3 3 3 3 3 3 3 3 2 2 2
1 2 3 4 6 6 7 9 10 9 10 11 10 8 7 8 9 8 8 8 9 9 10 10 10 10 11 11 12 14 15 16 17 18 19 20 20 20 19 17 16 17 17 18 18 19 20 21 21 22 22 21 20 19 18 17 16 15 15 13 12 10 9 7 6 5 4 5 5 5 4 3 3 3 4 4 2 3 3 3 2 1 1 1 1
1 2 3 4 4 5 6 8 9 8 8 10 9 7 6 7 7 6 7 8 8 8 8 9 9 9 9 10 11 13 14 15 16 17 18 18 18 18 16 15 14 14 14 15 16 16 17 18 19 20 20 20 19 18 17 16 14 13 12 11 9 8 6 5 4 3 4 4 6 6 6 5 3 3 5 5 3 2 3 2 2 2 1 0 1
2 0 2 3 3 3 4 6 7 7 7 8 9 8 6 5 5 4 5 6 7 7 7 8 9 9 10 11 12 13 13 14 14 15 15 16 16 15 14 13 12 11 12 12 13 14 14 14 15 16 16 15 15 14 14 13 12 10 9 8 7 6 5 4 5 5 6 8 9 9 9 8 7 6 5 4 2 1 0 0 1 2 2 1 2
4 2 1 2 3 2 2 3 5 6 6 6 7 7 6 5 4 3 3 5 6 6 6 7 8 10 11 12 13 13 13 13 13 13 13 14 14 13 12 12 11 10 10 10 11 12 13 13 14 14 15 15 14 13 13 12 11 10 9 8 8 8 8 8 9 10 11 11 11 10 9 8 7 7 6 4 3 1 1 0 0 1 2 2 1
6 3 2 1 2 1 1 1 2 4 4 4 4 4 4 4 3 2 2 2 3 4 5 6 7 9 10 11 11 12 12 12 12 12 12 11 12 12 11 11 11 10 10 10 10 11 13 14 14 15 15 15 15 14 14 14 13 13 12 12 11 11 11 11 11 11 11 10 10 9 8 7 6 6 5 5 4 3 2 1 1 1 2 2 2
7 5 4 3 1 1 1 1 0 2 3 3 3 2 2 2 3 4 4 3 3 2 2 3 5 6 7 7 8 9 10 11 11 11 11 10 9 9 9 10 10 10 11 11 11 12 13 14 13 13 13 13 14 14 14 14 13 13 12 12 12 11 11 11 10 9 9 8 8 7 6 5 4 4 4 4 4 3 3 3 2 2 2 3 2
Wind_Direction
187 189 190 189 190 190 187 182 179 181 180 173 171 170 164 159 152 143 143 148 154 158 163 164 154 146 149 154 150 137 144 159 164 167 167 160 152 146 142 137 130 125 119 108 99 95 98 105 106 105 107 108 108 107 110 119 135 153 161 350 341 324 318 110 119 157 183 189 193 196 196 195 194 196 199 201 204 205 203 203 204 211 222 233 258
190 192 191 189 188 187 185 182 181 182 180 174 171 170 165 159 152 145 144 151 155 154 158 163 157 151 156 161 158 149 146 154 162 167 166 160 153 148 147 149 143 136 128 120 112 104 100 104 106 102 100 97 95 95 97 102 112 148 291 299 298 297 292 277 237 217 227 216 207 207 205 201 201 205 208 207 207 209 214 219 224 231 238 246 259
193 195 193 189 185 183 182 182 183 184 182 177 173 169 164 159 154 149 144 148 155 155 157 162 162 161 163 166 164 161 156 154 159 163 160 153 147 141 138 139 139 140 139 134 124 116 111 112 111 109 108 106 104 103 94 81 75 285 293 297 298 298 291 282 265 240 248 250 228 220 217 211 209 211 210 209 209 211 216 224 233 240 246 253 264
196 196 194 192 185 182 182 183 184 186 184 180 175 167 161 156 153 148 139 140 156 162 162 163 165 168 168 169 169 168 166 160 157 158 154 147 141 134 129 128 128 132 139 145 144 140 139 138 139 138 138 148 168 190 227 267 286 288 293 304 313 313 296 279 262 244 245 252 243 231 228 222 217 215 211 210 211 214 219 226 236 247 254 259 267
199 199 198 196 189 185 184 184 186 187 185 181 173 167 163 159 155 151 140 130 147 166 170 166 167 169 169 170 171 170 169 163 158 157 153 147 143 138 134 131 129 130 134 141 152 160 167 174 179 190 205 219 231 236 238 257 279 276 275 284 300 313 316 291 260 241 235 239 245 243 234 226 222 219 215 213 213 217 222 228 237 248 256 259 265
197 202 203 200 194 190 187 186 187 188 187 180 170 166 168 166 160 154 143 126 132 160 173 173 169 168 170 170 170 169 168 163 160 159 156 153 150 149 147 144 142 142 142 145 150 158 170 185 201 215 226 236 242 249 259 272 276 266 262 270 279 291 309 320 290 240 224 229 239 246 242 236 230 225 221 218 217 220 224 229 236 245 253 257 262
194 201 204 201 196 191 189 189 189 190 189 182 172 168 171 171 166 160 149 132 129 150 171 179 174 171 172 171 170 169 168 166 165 164 163 161 161 160 161 161 160 161 162 163 165 169 176 189 205 220 231 240 250 266 278 284 284 278 273 276 282 284 279 286 295 260 229 229 238 246 248 246 240 234 230 225 222 224 228 231 236 243 249 255 260
192 200 204 205 205 199 193 192 191 192 192 187 181 175 173 173 171 166 156 141 134 143 165 184 181 176 176 175 173 173 172 172 171 171 171 171 172 173 174 175 177 178 181 185 187 186 184 187 200 219 239 254 273 288 293 298 302 301 299 296 294 290 279 265 258 256 247 240 241 247 251 249 244 239 234 228 227 230 232 233 237 243 250 254 259
188 195 197 201 204 203 198 193 191 194 195 193 192 186 179 178 177 174 165 153 149 149 157 177 182 178 179 180 180 180 179 179 179 179 180 181 182 185 187 189 191 193 197 202 205 205 198 191 200 224 247 263 279 290 295 304 312 313 315 315 310 306 301 290 275 266 263 258 255 256 254 250 246 243 240 237 237 239 239 238 239 244 250 254 256
187 194 194 196 199 199 198 194 191 193 197 198 197 189 176 171 175 178 173 162 158 154 151 165 176 175 178 184 187 189 189 190 191 192 193 194 198 203 206 209 209 208 211 213 216 213 203 196 201 222 250 267 279 287 290 297 301 303 307 309 310 309 305 301 294 283 275 272 270 269 264 257 253 251 250 249 248 246 244 242 242 246 249 250 253
191 195 196 198 198 195 196 197 196 199 201 203 202 194 185 184 191 197 191 173 162 157 153 158 168 171 175 180 186 193 198 201 204 206 206 207 209 210 212 216 217 216 219 219 216 211 208 213 224 234 250 263 272 279 283 287 290 292 295 295 296 296 295 295 293 286 281 276 273 273 271 268 266 262 259 256 252 248 247 246 246 247 248 248 250
197 196 194 196 195 194 197 200 203 207 208 212 221 222 217 219 222 219 208 194 184 176 168 166 169 174 178 181 184 190 198 203 204 206 208 209 211 211 213 217 221 226 231 232 232 229 228 234 241 249 259 266 272 276 280 286 290 289 289 287 286 286 286 287 287 285 284 281 277 275 272 273 275 271 266 263 259 253 250 249 249 249 250 249 248
187 188 192 195 196 201 204 206 212 216 216 220 228 228 219 214 212 210 209 210 210 207 201 195 192 196 200 200 200 201 205 207 208 209 211 213 217 221 224 227 231 234 239 242 244 244 245 248 250 255 261 267 272 276 277 281 285 286 286 283 282 281 278 277 279 280 281 280 279 279 277 276 276 274 273 272 269 262 255 252 252 251 249 247 246
136 146 167 179 187 199 205 208 214 216 212 208 205 198 195 200 205 210 215 218 215 215 221 223 219 220 224 223 222 222 222 221 222 223 224 226 230 232 235 238 239 240 242 243 244 246 248 251 253 255 258 263 268 272 275 278 280 281 281 279 279 278 276 276 279 280 280 279 278 279 280 279 278 276 274 270 267 266 263 259 257 254 250 247 246
112 115 125 135 149 172 181 188 194 195 192 190 189 193 199 205 212 216 217 216 211 212 222 229 230 233 236 237 239 239 237 235 235 236 239 241 243 246 248 249 249 249 248 247 247 248 250 252 255 257 259 262 266 270 272 274 275 276 276 276 276 276 276 278 280 281 281 280 278 278 279 279 279 278 276 271 265 261 260 261 261 257 254 250 245
111 113 120 127 139 154 162 169 173 175 179 184 192 200 203 208 212 213 216 218 212 210 218 225 229 232 233 234 237 240 241 241 241 242 245 247 249 252 255 257 256 256 254 253 253 254 255 258 259 261 263 265 267 270 270 271 271 273 274 274 274 274 276 278 279 280 281 280 279 279 278 277 276 275 276 277 272 262 255 252 252 248 244 242 239
111 112 116 118 123 132 143 152 157 161 171 180 191 200 205 209 206 199 202 209 209 212 217 219 222 225 227 229 231 234 239 242 244 247 248 250 253 256 259 261 261 261 260 259 260 261 262 263 263 264 266 267 267 268 267 268 268 269 271 272 273 274 275 277 278 279 280 280 280 278 276 276 275 273 274 276 275 269 256 243 237 233 229 231 236
105 108 111 112 115 117 122 129 136 148 169 179 187 196 204 209 205 193 195 204 211 219 222 222 225 228 230 232 231 232 239 245 249 252 253 255 257 259 261 262 262 263 263 264 265 267 268 269 269 270 270 269 267 265 263 263 264 266 267 269 271 273 274 276 278 279 280 281 280 279 278 276 275 275 275 273 271 265 251 232 225 222 219 224 239
99 102 104 107 110 111 112 115 122 136 153 159 167 180 187 192 198 198 200 206 215 220 221 226 235 237 240 247 248 253 263 265 261 258 258 259 260 261 262 262 264 266 268 270 272 274 275 276 275 274 271 268 266 264 264 265 267 268 269 270 272 274 276 278 278 279 281 282 282 282 281 280 278 276 275 270 263 254 239 225 223 226 226 233 244
91 95 99 101 104 106 109 111 115 123 130 133 140 151 154 157 173 189 199 208 221 232 236 247 255 256 259 265 264 264 266 266 265 264 264 264 265 267 268 269 271 271 272 274 275 276 278 279 276 273 270 269 268 269 271 273 275 275 275 275 277 279 280 279 277 277 279 281 283 284 281 278 276 271 265 257 245 235 227 224 230 237 238 240 244
77 81 85 91 95 97 102 105 108 116 126 131 139 150 156 165 179 195 209 216 224 237 248 256 263 267 269 274 274 270 267 267 270 272 273 274 276 279 280 281 281 280 280 280 279 280 280 280 277 275 273 272 272 273 275 276 276 276 276 276 278 279 279 278 277 275 275 275 277 280 277 272 266 258 247 237 227 222 225 230 235 237 237 239 245
66 67 71 76 78 79 84 84 86 100 121 153 187 218 233 236 240 245 251 252 252 256 259 261 264 268 272 274 275 275 275 275 275 275 276 277 278 279 282 283 283 283 283 281 281 280 280 278 277 276 276 275 275 275 275 274 273 273 274 274 275 276 277 279 277 274 273 272 271 273 270 262 254 245 234 226 223 227 234 234 233 234 237 242 249
62 61 63 66 66 69 71 68 68 56 345 255 249 256 257 256 257 260 263 265 265 267 268 270 272 274 277 278 278 278 278 278 278 278 277 277 277 277 278 279 279 280 279 278 277 276 275 274 273 272 273 273 273 274 273 272 271 271 271 270 271 273 275 277 277 274 272 270 268 265 261 255 248 238 231 229 232 237 236 231 229 234 240 245 249
58 53 53 57 56 55 51 44 31 358 326 300 290 284 277 275 273 270 269 269 269 270 271 272 273 274 275 276 276 276 276 276 276 276 275 274 275 275 275 275 275 275 275 275 275 274 273 272 271 271 271 270 271 272 272 271 271 270 269 269 270 272 274 276 276 273 270 268 266 261 255 249 240 233 231 232 232 229 227 227 230 236 241 245 253
58 55 52 50 44 38 29 15 0 345 324 306 300 294 289 287 283 280 279 277 275 274 273 271 271 271 272 273 273 274 275 274 273 272 272 272 272 273 274 274 275 276 277 277 277 277 277 277 277 277 276 274 273 273 272 271 271 269 269 270 271 273 276 277 277 274 269 267 266 260 250 238 230 227 227 224 217 216 222 227 230 234 242 252 263
59 58 54 49 42 34 24 13 5 355 340 329 320 307 301 298 294 292 292 289 286 285 283 281 280 279 279 280 280 281 281 280 278 277 277 276 276 277 277 278 278 278 279 280 281 281 282 282 282 282 281 280 279 278 276 275 273 271 271 272 273 275 276 275 275 274 271 268 265 255 239 227 222 221 217 210 207 213 222 228 233 241 253 263 272
53 51 49 45 40 36 30 22 16 9 4 5 4 359 354 342 329 325 322 314 310 308 306 304 302 301 301 298 296 296 294 291 288 287 285 283 281 279 279 279 279 279 279 279 280 280 282 283 283 283 284 283 282 281 279 277 275 274 273 273 273 274 272 270 270 270 270 270 264 246 227 218 216 213 208 206 208 214 220 229 241 254 263 269 277
48 45 43 39 36 35 35 33 32 29 27 26 24 24 19 6 356 353 348 341 337 333 330 326 321 320 320 318 316 318 316 308 301 298 295 291 288 285 283 280 278 276 276 276 275 276 277 279 280 281 283 284 284 283 282 280 277 274 272 271 272 272 271 272 271 269 269 265 249 229 216 211 211 208 205 205 207 210 219 234 249 261 268 274 284
47 45 43 40 38 39 41 43 48 52 50 44 38 34 29 20 12 6 359 354 350 346 343 341 338 339 342 342 341 342 340 332 321 313 307 303 298 295 292 289 286 282 279 277 275 274 272 273 276 279 281 283 285 286 285 283 279 274 270 269 268 269 272 273 270 269 266 249 227 215 209 206 204 202 201 201 203 209 225 241 253 263 271 276 284
44 43 41 40 42 45 49 53 57 60 59 53 46 40 34 28 22 16 10 6 1 359 360 357 352 352 358 2 359 355 354 351 343 335 328 321 314 308 305 302 299 294 288 283 280 276 273 272 274 278 280 282 284 286 286 283 277 271 269 269 269 269 269 267 265 264 252 229 214 210 208 202 197 195 195 199 209 224 238 245 250 257 263 271 284
37 35 33 32 34 38 44 50 53 55 57 57 55 51 44 33 23 16 12 10 9 9 9 7 3 1 3 8 6 359 356 355 350 344 341 338 332 326 319 313 306 299 294 289 286 283 280 276 275 278 280 281 282 283 282 279 274 272 271 274 274 271 265 259 254 245 229 214 206 205 202 196 191 190 194 205 219 228 234 238 240 246 257 271 286
29 28 27 26 27 33 41 47 52 54 53 54 58 60 55 45 33 23 17 15 18 22 23 21 16 10 5 3 360 351 342 338 336 338 343 346 347 344 338 328 318 310 305 302 300 298 293 286 283 283 281 279 279 279 278 276 274 273 274 275 271 262 254 249 239 223 213 206 198 192 190 190 188 189 198 210 218 220 221 227 236 248 266 280 289
26 25 26 29 34 42 49 51 52 53 51 50 50 50 47 43 40 38 35 30 28 32 37 36 30 22 15 9 3 355 346 339 336 337 341 346 349 349 346 338 327 320 316 313 312 312 308 299 292 286 281 278 278 279 281 279 274 272 272 266 258 249 240 230 217 203 196 195 188 180 180 186 189 192 201 206 207 211 217 227 243 262 274 282 290
26 25 29 38 48 53 55 51 45 42 42 42 40 37 35 35 36 43 53 52 44 40 40 38 32 26 22 21 20 18 15 11 5 356 351 350 348 344 340 333 321 318 320 318 314 312 311 308 301 291 282 277 278 284 288 282 270 266 266 257 248 241 226 204 193 185 180 182 182 178 179 186 188 189 194 198 201 209 219 233 251 264 270 277 283
25 27 32 42 52 54 50 44 38 34 35 37 37 35 35 36 36 39 45 49 49 48 44 38 33 28 25 24 23 21 19 15 11 3 357 354 352 348 342 331 314 301 302 306 308 308 307 309 311 304 293 284 284 291 292 280 261 253 257 255 247 234 211 189 181 180 178 177 177 178 179 181 180 178 183 191 199 210 225 243 255 260 268 273 274
22 27 35 43 49 54 52 45 39 35 34 38 40 40 39 40 40 40 39 41 46 54 55 50 41 34 29 25 20 17 15 10 4 359 356 354 353 352 350 345 334 314 300 298 299 299 298 301 306 308 306 298 292 294 297 288 267 247 247 250 242 220 197 180 173 174 174 172 172 173 172 170 171 175 181 189 202 219 237 250 256 260 262 262 260
16 23 32 42 49 53 52 46 40 36 36 43 49 51 48 44 40 39 40 42 47 55 60 58 48 36 28 21 15 14 12 4 356 353 353 353 353 357 0 0 355 343 327 315 307 299 294 292 295 301 304 302 299 300 304 298 279 254 246 243 226 201 184 173 167 165 165 164 163 162 160 161 167 174 181 193 208 226 238 243 248 250 246 243 242
10 11 18 40 53 52 45 40 36 33 37 52 64 64 57 48 43 41 42 44 45 47 47 44 35 29 24 19 15 13 10 3 355 354 356 359 2 5 8 7 3 356 348 339 328 316 303 293 292 297 301 307 313 313 309 301 283 257 243 232 207 184 171 162 156 155 156 156 152 151 155 162 170 176 185 198 210 221 226 224 213 200 200 195 130
6 4 4 14 48 44 30 26 26 29 40 65 80 75 63 53 49 47 45 44 44 45 46 44 40 36 34 32 28 24 20 18 17 17 16 17 17 16 14 12 9 6 2 354 346 338 325 310 302 301 303 312 320 314 308 307 282 226 217 202 178 164 158 154 151 149 150 150 147 148 153 159 168 178 187 194 200 206 203 187 158 147 157 156 121
4 2 0 2 19 20 3 358 8 24 48 80 88 78 66 59 57 54 52 54 58 58 57 55 51 48 47 46 42 38 38 39 40 38 35 33 29 26 23 21 17 12 6 0 355 348 338 325 313 303 301 305 307 305 309 321 166 182 185 173 163 160 159 155 148 141 139 138 136 137 140 146 159 170 174 175 179 178 165 148 130 128 131 127 87
3 3 0 1 5 358 346 341 353 16 53 90 94 82 74 71 67 65 65 67 69 67 62 59 57 55 54 54 51 48 49 51 50 48 45 42 39 35 32 29 23 16 8 3 359 354 348 339 326 309 306 307 302 296 284 143 162 176 176 169 169 169 161 148 138 133 132 130 127 125 126 134 144 151 152 153 156 152 141 129 118 115 112 103 63
3 6 7 8 9 2 355 354 0 17 61 101 102 90 87 85 79 76 76 75 73 69 66 64 62 58 55 53 50 50 53 53 52 51 48 45 42 40 38 35 32 27 23 17 13 9 8 10 9 358 352 359 17 108 127 139 155 168 171 167 164 158 146 136 133 135 135 129 118 106 103 114 131 139 141 141 139 137 133 123 115 117 109 91 79
359 10 20 25 25 22 21 15 9 20 90 120 112 96 93 91 85 84 83 80 75 72 70 70 66 59 53 47 44 44 47 49 48 48 47 46 44 42 42 42 42 41 40 40 40 38 35 36 45 52 55 64 80 99 117 132 142 150 152 148 144 140 138 136 138 142 141 130 108 87 82 98 125 134 133 136 135 133 130 122 116 113 96 72 66
351 11 29 35 30 29 31 24 16 31 115 128 114 100 97 94 91 91 86 80 77 73 71 72 69 60 51 44 39 37 37 38 39 41 42 43 43 42 41 43 45 46 47 50 54 56 56 57 63 73 79 82 88 98 111 121 125 127 132 138 141 142 144 144 144 144 139 123 100 85 80 93 128 134 137 144 139 121 116 118 119 111 83 59 56
345 8 31 37 31 31 35 30 27 50 107 118 108 102 103 100 98 97 89 79 76 73 71 73 71 61 51 43 38 36 34 33 35 39 41 42 43 42 41 42 44 46 48 51 57 63 66 68 71 75 80 85 92 100 107 110 111 112 119 128 135 139 140 138 133 126 113 100 94 90 90 118 148 146 148 149 127 106 114 119 110 98 73 51 52
330 9 33 42 37 35 40 39 39 61 101 114 111 106 106 104 102 98 88 82 79 75 72 73 70 61 52 44 39 38 37 36 37 41 44 45 45 44 42 41 44 48 53 58 63 69 75 79 80 81 84 88 93 98 101 104 107 111 117 123 127 128 126 119 108 100 95 96 101 106 119 144 162 166 165 160 129 97 107 107 82 48 34 43 35
195 24 30 40 42 40 44 49 49 61 93 115 120 115 108 107 105 98 90 88 87 81 76 74 70 63 57 51 47 45 43 41 41 42 44 46 47 47 45 44 47 54 62 68 71 74 79 85 88 89 90 91 93 95 97 100 104 109 114 118 118 116 110 101 96 98 105 116 122 121 117 114 114 137 155 160 148 103 93 79 9 343 329 275 315
192 84 17 26 41 44 46 55 58 61 78 109 126 132 131 125 115 102 95 93 90 83 76 73 70 67 63 58 55 51 48 45 44 43 42 44 47 50 49 49 50 55 59 63 67 70 75 80 86 88 89 90 92 94 96 99 102 104 106 109 110 107 104 105 111 116 121 123 120 111 102 97 96 104 120 137 149 151 74 330 332 343 343 305 283
202 193 349 11 31 41 42 57 69 70 75 94 119 135 142 141 136 124 107 97 90 83 79 78 76 71 67 63 58 54 51 48 46 45 43 44 47 50 51 50 50 51 53 55 61 67 71 75 80 83 83 83 83 85 89 92 95 97 101 104 105 106 108 112 115 116 115 113 108 101 97 94 91 90 90 91 93 93 86 81 26 3 359 351 327
208 207 240 317 3 26 26 44 78 86 84 86 103 124 135 144 159 180 171 132 111 92 85 87 85 78 72 66 60 55 51 48 46 45 44 44 46 50 53 54 54 56 59 63 70 76 79 80 82 82 82 82 84 86 90 93 96 98 101 102 104 107 109 111 112 112 110 107 103 99 94 89 80 73 67 60 54 52 40 26 13 344 339 338 328
211 217 236 255 284 341 357 339 170 142 124 112 119 134 149 173 204 225 226 206 181 159 126 108 99 89 81 73 63 53 47 43 42 43 44 44 45 49 53 57 61 65 68 73 78 83 86 87 87 85 85 86 88 90 93 95 96 98 100 102 105 108 110 111 112 112 110 107 102 96 88 79 62 46 36 25 14 1 347 334 312 295 308 315 311